Location: Brabourne
(51.1333°N, 1.0000°E)
Time: 11:01:26
(UTC+00:00)

Cosmos 1825 Rocket - Pass Details

Date: 19 October 2021
Orbit: 603 x 631 km, 82.5° (Epoch: 26 November)

Event Time Altitude Azimuth Distance (km) Brightness Sun altitude
Rises 19:57:43 0° 346° (NNW) 2,885 7.4 -29.1°
Reaches altitude 10° 19:59:59 10° 343° (NNW) 1,972 6.6 -29.4°
Enters shadow 20:02:31 33° 328° (NNW) 1,035 5.0 -29.8°
